| time (UTC) | temp C | wind direction | speed KPH | gust KPH | rain 1hr cm | rain 24hr cm | rain mn cm | humidity % | barometer mb |
| 20260503191517 | 10 | 324 | 3.2 | 24.1 | 0.00 | 0.51 | 0.00 | 54 | 1003.0 |
| 20260503190019 | 10 | 55 | 6.4 | 17.7 | 0.00 | 0.51 | 0.00 | 57 | 1003.0 |
| 20260503184515 | 10 | 32 | 0.0 | 16.1 | 0.00 | 0.61 | 0.00 | 63 | 1003.1 |
| 20260503183014 | 10 | 298 | 0.0 | 11.3 | 0.00 | 0.61 | 0.00 | 63 | 1003.2 |
| 20260503181510 | 10 | 351 | 1.6 | 14.5 | 0.00 | 0.61 | 0.00 | 63 | 1003.2 |
| 20260503180135 | 8 | 341 | 1.6 | 12.9 | 0.00 | 0.61 | 0.00 | 66 | 1003.2 |
| 20260503174559 | 8 | 285 | 0.0 | 8.0 | 0.00 | 0.61 | 0.00 | 70 | 1003.4 |
| 20260503173059 | 8 | 62 | 1.6 | 16.1 | 0.00 | 0.61 | 0.00 | 72 | 1003.5 |
| 20260503171551 | 7 | 339 | 4.8 | 17.7 | 0.00 | 0.61 | 0.00 | 71 | 1003.5 |
| 20260503081600 | 5 | 21 | 0.0 | 0.0 | 0.00 | 0.71 | 0.00 | 95 | 1006.1 |
| 20260503071556 | 5 | 28 | 0.0 | 0.0 | 0.00 | 0.71 | 0.00 | 95 | 1006.4 |
| 20260503060138 | 6 | 5 | 0.0 | 4.8 | 0.00 | 0.71 | 0.00 | 95 | 1007.0 |
| 20260503054535 | 6 | 321 | 0.0 | 4.8 | 0.00 | 0.71 | 0.00 | 95 | 1007.2 |
| 20260503053039 | 6 | 311 | 0.0 | 0.0 | 0.00 | 0.71 | 0.00 | 95 | 1007.5 |
| 20260503051530 | 6 | 311 | 0.0 | 3.2 | 0.00 | 0.71 | 0.00 | 95 | 1007.7 |
| 20260503050032 | 6 | 311 | 0.0 | 0.0 | 0.00 | 0.71 | 0.00 | 95 | 1008.2 |
| 20260503044559 | 6 | 311 | 0.0 | 0.0 | 0.00 | 0.71 | 0.00 | 95 | 1008.4 |
| 20260503043022 | 6 | 311 | 0.0 | 0.0 | 0.00 | 0.71 | 0.00 | 95 | 1008.5 |
| 20260503041621 | 6 | 313 | 0.0 | 1.6 | 0.00 | 0.71 | 0.00 | 95 | 1008.6 |
| 20260503040019 | 6 | 351 | 0.0 | 0.0 | 0.00 | 0.71 | 0.00 | 95 | 1008.6 |
| 20260503034517 | 6 | 15 | 0.0 | 4.8 | 0.00 | 0.71 | 0.71 | 95 | 1008.4 |
| 20260503033016 | 6 | 334 | 0.0 | 0.0 | 0.00 | 0.71 | 0.71 | 95 | 1008.4 |
| 20260503031514 | 6 | 5 | 0.0 | 0.0 | 0.00 | 0.71 | 0.71 | 95 | 1008.6 |
| 20260503030016 | 6 | 5 | 0.0 | 0.0 | 0.00 | 0.71 | 0.71 | 95 | 1008.7 |
| 20260503024513 | 6 | 5 | 0.0 | 0.0 | 0.00 | 0.71 | 0.71 | 95 | 1008.6 |
| 20260503023012 | 6 | 325 | 0.0 | 0.0 | 0.00 | 0.71 | 0.71 | 95 | 1008.7 |
| 20260503021517 | 6 | 325 | 0.0 | 0.0 | 0.03 | 0.71 | 0.71 | 95 | 1009.0 |
| 20260503020012 | 6 | 325 | 0.0 | 0.0 | 0.03 | 0.71 | 0.71 | 95 | 1009.2 |
| 20260503014510 | 6 | 325 | 0.0 | 0.0 | 0.03 | 0.71 | 0.71 | 95 | 1009.4 |
| 20260503013009 | 6 | 15 | 0.0 | 0.0 | 0.05 | 0.71 | 0.71 | 95 | 1009.4 |
| 20260503011511 | 6 | 13 | 0.0 | 0.0 | 0.05 | 0.71 | 0.71 | 95 | 1009.5 |
| 20260503010009 | 7 | 355 | 0.0 | 0.0 | 0.08 | 0.71 | 0.71 | 95 | 1009.5 |
| 20260503004508 | 7 | 360 | 0.0 | 0.0 | 0.10 | 0.71 | 0.71 | 94 | 1009.4 |
| 20260503003008 | 7 | 351 | 0.0 | 0.0 | 0.08 | 0.69 | 0.69 | 94 | 1009.5 |
| 20260503001509 | 7 | 351 | 0.0 | 0.0 | 0.05 | 0.66 | 0.66 | 94 | 1009.3 |
| 20260503000014 | 7 | 355 | 0.0 | 0.0 | 0.03 | 0.64 | 0.64 | 94 | 1009.1 |
| 20260502234508 | 7 | 351 | 0.0 | 0.0 | 0.00 | 0.61 | 0.61 | 94 | 1009.2 |
| 20260502233005 | 7 | 351 | 0.0 | 0.0 | 0.03 | 0.61 | 0.61 | 94 | 1009.0 |
| 20260502231505 | 7 | 351 | 0.0 | 0.0 | 0.05 | 0.61 | 0.61 | 94 | 1008.9 |
| 20260502230005 | 7 | 355 | 0.0 | 0.0 | 0.05 | 0.61 | 0.61 | 94 | 1008.9 |
| 20260502224504 | 7 | 355 | 0.0 | 0.0 | 0.08 | 0.61 | 0.61 | 94 | 1008.8 |
| 20260502223003 | 7 | 5 | 0.0 | 0.0 | 0.05 | 0.58 | 0.58 | 94 | 1008.7 |
| 20260502221502 | 7 | 23 | 0.0 | 3.2 | 0.05 | 0.56 | 0.56 | 94 | 1008.7 |
| 20260502220001 | 7 | 355 | 0.0 | 0.0 | 0.08 | 0.56 | 0.56 | 94 | 1008.9 |
| 20260502214616 | 7 | 330 | 0.0 | 0.0 | 0.08 | 0.53 | 0.53 | 94 | 1009.0 |
| 20260502213121 | 7 | 328 | 0.0 | 0.0 | 0.13 | 0.53 | 0.53 | 93 | 1009.1 |
| 20260502211600 | 7 | 329 | 0.0 | 0.0 | 0.13 | 0.51 | 0.51 | 93 | 1009.2 |
| 20260502210058 | 7 | 329 | 0.0 | 0.0 | 0.15 | 0.48 | 0.48 | 93 | 1009.2 |
| 20260502204557 | 7 | 338 | 0.0 | 0.0 | 0.20 | 0.46 | 0.46 | 93 | 1009.2 |
| 20260502203114 | 7 | 336 | 0.0 | 0.0 | 0.18 | 0.41 | 0.41 | 92 | 1009.2 |
| 20260502201556 | 7 | 316 | 0.0 | 0.0 | 0.15 | 0.38 | 0.38 | 92 | 1009.1 |
| 20260502200059 | 7 | 5 | 0.0 | 0.0 | 0.08 | 0.30 | 0.30 | 92 | 1009.2 |
| 20260502194555 | 7 | 5 | 0.0 | 0.0 | 0.03 | 0.25 | 0.25 | 92 | 1009.2 |
| 20260502193054 | 7 | 355 | 0.0 | 0.0 | 0.03 | 0.23 | 0.23 | 92 | 1009.1 |